DW5775 Weather Reports


time (UTC)temp
C
wind
direction
speed
KPH
gust
KPH
rain 1hr
cm
rain 24hr
cm
rain mn
cm
humidity
%
barometer
mb
20260506121505 7 296 0.0 3.2 0.00 0.23 0.00 79 1009.6
20260506120004 7 298 0.0 0.0 0.00 0.23 0.00 80 1009.7
20260506114502 6 297 0.0 0.0 0.00 0.23 0.00 83 1009.3
20260506113100 6 298 0.0 0.0 0.00 0.23 0.00 82 1009.1
20260506111558 6 298 0.0 1.6 0.00 0.23 0.00 79 1009.0
20260506110053 7 298 0.0 0.0 0.00 0.23 0.00 78 1008.7
20260506104551 7 298 0.0 1.6 0.00 0.23 0.00 76 1008.6
20260506103047 7 298 0.0 1.6 0.00 0.23 0.00 74 1008.4
20260506101545 7 298 0.0 1.6 0.00 0.23 0.00 73 1008.4
20260506100046 7 297 0.0 1.6 0.00 0.23 0.00 70 1008.0
20260506094545 7 297 0.0 1.6 0.00 0.23 0.00 70 1007.9
20260506093101 7 298 0.0 1.6 0.00 0.23 0.00 69 1007.8
20260506091537 7 298 1.6 4.8 0.00 0.23 0.00 67 1007.8
20260506090039 8 321 0.0 1.6 0.00 0.23 0.00 67 1007.4
20260506084535 8 321 0.0 1.6 0.00 0.23 0.00 66 1007.5
20260506083037 8 280 0.0 3.2 0.00 0.23 0.00 65 1007.4
20260506081532 8 315 0.0 4.8 0.00 0.23 0.00 64 1007.3
20260506073029 8 26 0.0 1.6 0.00 0.23 0.00 63 1007.5
20260506071528 8 25 0.0 3.2 0.00 0.23 0.00 62 1007.2
20260506061523 8 113 0.0 1.6 0.00 0.25 0.00 64 1007.7
20260506044516 8 107 0.0 1.6 0.00 0.46 0.00 63 1007.4
20260506043013 8 108 0.0 3.2 0.00 0.46 0.00 61 1007.3
20260506041511 8 228 0.0 0.0 0.00 0.46 0.00 63 1007.4
20260506040008 8 228 0.0 1.6 0.00 0.46 0.00 62 1007.0
20260506034507 9 228 0.0 0.0 0.00 0.46 0.46 63 1007.2
20260506033006 9 228 0.0 1.6 0.00 0.46 0.46 63 1007.4
20260506031504 9 228 0.0 0.0 0.00 0.46 0.46 58 1007.5
20260506030004 9 227 0.0 1.6 0.00 0.46 0.46 57 1007.3
20260506024504 9 228 0.0 0.0 0.00 0.46 0.46 58 1007.4
20260506023001 10 228 0.0 0.0 0.00 0.46 0.46 59 1007.4
20260506021559 10 228 0.0 0.0 0.00 0.46 0.46 56 1007.4
20260506020123 10 228 0.0 1.6 0.00 0.46 0.46 55 1007.3
20260506014557 10 228 0.0 1.6 0.00 0.58 0.46 52 1007.0
20260506013055 10 228 0.0 1.6 0.00 0.58 0.46 52 1006.9
20260506011556 10 228 0.0 1.6 0.00 0.58 0.46 50 1006.7
20260506010053 10 257 0.0 1.6 0.00 0.58 0.46 50 1006.7
20260506004553 11 159 0.0 3.2 0.00 0.58 0.46 50 1006.7
20260506003051 11 166 0.0 3.2 0.00 0.58 0.46 51 1006.6
20260506001556 11 236 0.0 1.6 0.00 0.58 0.46 60 1006.4
20260506000059 11 235 0.0 1.6 0.00 0.58 0.46 58 1006.4
20260505234546 11 255 0.0 3.2 0.00 0.58 0.46 57 1006.0
20260505233051 11 146 0.0 1.6 0.00 0.58 0.46 57 1005.9
20260505231552 12 248 0.0 1.6 0.00 0.58 0.46 56 1005.8
20260505230049 12 249 0.0 1.6 0.00 0.58 0.46 59 1005.9
20260505224548 12 252 0.0 3.2 0.00 0.58 0.46 57 1006.0
20260505223044 12 195 0.0 4.8 0.00 0.58 0.46 58 1006.0
20260505221549 12 167 0.0 6.4 0.00 0.58 0.46 59 1006.0
20260505220048 12 145 1.6 4.8 0.00 0.58 0.46 68 1005.9
20260505214546 12 221 0.0 3.2 0.00 0.58 0.46 73 1006.0
20260505213040 12 121 0.0 8.0 0.00 0.58 0.46 73 1005.8
20260505211607 12 29 1.6 6.4 0.00 0.58 0.46 74 1005.9
20260505210043 12 111 0.0 6.4 0.00 0.58 0.46 76 1005.9
20260505204553 11 118 1.6 4.8 0.00 0.58 0.46 76 1006.0
20260505203037 11 79 1.6 3.2 0.00 0.58 0.46 78 1006.0
20260505201539 11 71 1.6 4.8 0.00 0.58 0.46 78 1006.0
20260505200037 11 208 0.0 11.3 0.00 0.58 0.46 79 1005.9
20260505194536 11 112 0.0 9.7 0.00 0.58 0.46 80 1006.1
20260505193035 11 101 0.0 4.8 0.00 0.58 0.46 81 1006.2
20260505191535 10 155 1.6 6.4 0.00 0.58 0.46 81 1006.2
20260505190037 10 238 1.6 8.0 0.00 0.58 0.46 82 1006.3
20260505184539 10 290 0.0 6.4 0.00 0.58 0.46 83 1006.3
20260505183030 10 148 1.6 6.4 0.00 0.58 0.46 85 1005.9
20260505181530 10 140 0.0 8.0 0.03 0.58 0.46 87 1005.7
20260505180027 10 210 0.0 6.4 0.05 0.58 0.46 89 1005.6
20260505174535 10 284 1.6 6.4 0.05 0.58 0.46 89 1005.5
20260505173023 10 166 0.0 4.8 0.13 0.58 0.46 89 1005.2
20260505171532 10 176 0.0 4.8 0.18 0.56 0.43 88 1005.1
20260505170021 10 274 0.0 8.0 0.18 0.53 0.41 87 1005.3
20260505164517 10 117 1.6 6.4 0.15 0.51 0.38 87 1005.7
20260505163014 11 266 0.0 3.2 0.08 0.43 0.30 83 1005.8
20260505161509 12 290 0.0 3.2 0.03 0.38 0.25 77 1005.6
20260505153003 13 155 0.0 3.2 0.00 0.36 0.23 60 1004.7
20260505151504 14 179 0.0 3.2 0.00 0.36 0.23 61 1004.4
20260505124542 16 188 0.0 8.0 0.00 0.36 0.23 75 1001.8
20260505123049 15 109 1.6 8.0 0.00 0.36 0.23 78 1001.9